Weather History for Richmond Hanover County, VA

Change the Weather History Date:

Saturday, January 25, 2014

  Actual Average Record
Temperature  
Mean Temperature 26 °F -  
Max Temperature 34 °F 46 °F 79 °F (1950)
Min Temperature 19 °F 28 °F 8 °F (1963)
Degree Days  
Heating Degree Days 38    
Moisture  
Dew Point 6 °F    
Average Humidity 42    
Maximum Humidity 61    
Minimum Humidity 34    
Precipitation  
Precipitation 0.00 in - - ()
Sea Level Pressure  
Sea Level Pressure 29.78 in    
Wind  
Wind Speed 13 mph (SSW)    
Max Wind Speed 18 mph    
Max Gust Speed 29 mph    
Visibility 10 miles    
Events Snow    
Averages and records for this station are not official NWS values.
T = Trace of Precipitation, MM = Missing Value Source: NWS Daily Summary

Daily Weather History Graph

Daily Weather History Graph

Search for Another Location

Airport:

Trip Planner

Search our weather history database for the weather conditions in past years. The results will help you decide how hot, cold, wet, or windy it might be!

Date:

Astronomy

Jan. 25, 2014 Rise Set
Actual Time 7:18 AM EST 5:25 PM EST
Civil Twilight 6:50 AM EST 5:53 PM EST
Nautical Twilight 6:19 AM EST 6:25 PM EST
Astronomical Twilight 5:48 AM EST 6:56 PM EST
Moon 1:49 AM EST (1/25) 12:24 PM EST (1/25)
Length of Visible Light 11h 02m
Length of Day
10h 06m
Waning Crescent, 34% of the Moon is Illuminated
Jan 25
Waning Crescent
Jan 30
New
Feb 6
First Quarter
Feb 14
Full
Feb 22
Last Quarter

Hourly Weather History & Observations

Time (EST) Temp. Windchill Dew Point Humidity Pressure Visibility Wind Dir Wind Speed Gust Speed Precip Events Conditions
12:54 AM 19.9 °F 6.7 °F -2.0 °F 38% 30.16 in 10.0 mi South 13.8 mph 23.0 mph N/A   Clear
1:54 AM 19.9 °F 5.7 °F -2.0 °F 38% 30.13 in 10.0 mi South 16.1 mph - N/A   Clear
2:54 AM 19.0 °F 6.8 °F -0.9 °F 42% 30.09 in 10.0 mi South 11.5 mph - N/A   Clear
3:54 AM 19.9 °F 6.2 °F -0.0 °F 42% 30.04 in 10.0 mi South 15.0 mph - N/A   Clear
4:54 AM 19.0 °F 6.1 °F -0.0 °F 43% 29.99 in 10.0 mi South 12.7 mph - N/A   Clear
5:54 AM 19.0 °F 6.1 °F -0.0 °F 43% 29.95 in 10.0 mi South 12.7 mph - N/A   Clear
6:54 AM 19.9 °F 8.6 °F -0.0 °F 42% 29.93 in 10.0 mi South 10.4 mph - N/A   Clear
7:54 AM 21.0 °F 7.6 °F 1.0 °F 42% 29.90 in 10.0 mi South 15.0 mph - N/A   Clear
8:54 AM 21.9 °F 7.8 °F 1.9 °F 42% 29.86 in 10.0 mi SSW 17.3 mph 25.3 mph N/A   Clear
9:54 AM 24.1 °F 10.1 °F 1.9 °F 38% 29.81 in 10.0 mi SSW 18.4 mph 27.6 mph N/A   Overcast
10:54 AM 25.0 °F 13.1 °F 8.1 °F 49% 29.78 in 6.0 mi SSW 13.8 mph 28.8 mph 0.00 in Snow Light Snow
11:54 AM 27.0 °F 16.7 °F 5.0 °F 39% 29.71 in 10.0 mi SSW 11.5 mph 21.9 mph 0.00 in   Overcast
12:54 PM 28.9 °F 18.2 °F 3.9 °F 35% 29.66 in 10.0 mi SSW 13.8 mph - N/A   Overcast
1:54 PM 30.0 °F 17.9 °F 5.0 °F 35% 29.60 in 10.0 mi SSW 18.4 mph 25.3 mph N/A   Overcast
2:54 PM 32.0 °F 21.6 °F 6.1 °F 34% 29.57 in 10.0 mi SSW 15.0 mph 24.2 mph N/A   Partly Cloudy
3:54 PM 33.1 °F 23.4 °F 7.0 °F 34% 29.57 in 10.0 mi SW 13.8 mph 19.6 mph N/A   Partly Cloudy
4:54 PM 34.0 °F 26.6 °F 8.1 °F 34% 29.57 in 10.0 mi SSW 9.2 mph - N/A   Overcast
5:54 PM 34.0 °F 26.6 °F 9.0 °F 35% 29.59 in 10.0 mi SW 9.2 mph - N/A   Scattered Clouds
6:54 PM 34.0 °F 26.0 °F 14.0 °F 44% 29.61 in 10.0 mi SW 10.4 mph - N/A   Clear
7:54 PM 34.0 °F 26.6 °F 16.0 °F 48% 29.63 in 10.0 mi SW 9.2 mph - N/A   Clear
8:54 PM 33.1 °F 24.9 °F 17.1 °F 52% 29.63 in 10.0 mi SW 10.4 mph - N/A   Clear
9:54 PM 33.1 °F 24.9 °F 17.1 °F 52% 29.64 in 10.0 mi SW 10.4 mph - N/A   Clear
10:54 PM 33.1 °F 23.9 °F 17.1 °F 52% 29.68 in 10.0 mi WSW 12.7 mph 19.6 mph N/A   Scattered Clouds
11:54 PM 30.9 °F 22.2 °F 19.0 °F 61% 29.73 in 10.0 mi WNW 10.4 mph - N/A   Clear